Kingsville, TX

10:41 PM CST on February 20, 2017 (GMT -0600)
Kingsville Naval Air Station

Weather History for KNQI - November, 2012

Change the Weather History Date:

Friday, November 16, 2012

  Actual Average Record
Temperature  
Mean Temperature 62 °F -  
Max Temperature 70 °F 74 °F 91 °F (2011)
Min Temperature 52 °F 55 °F 33 °F (2008)
Degree Days  
Heating Degree Days 3    
Growing Degree Days 12 (Base 50)    
Moisture  
Dew Point 45 °F    
Average Humidity 52    
Maximum Humidity 71    
Minimum Humidity 33    
Precipitation  
Precipitation 0.00 in - - ()
Sea Level Pressure  
Sea Level Pressure 30.26 in    
Wind  
Wind Speed 9 mph (NE)    
Max Wind Speed 18 mph    
Max Gust Speed 23 mph    
Visibility 10 miles    
Events      
Averages and records for this station are not official NWS values.
T = Trace of Precipitation, MM = Missing Value Source: NWS Daily Summary

Daily Weather History Graph

Daily Weather History Graph

Search for Another Location

Airport or City:

Trip Planner

Search our weather history database for the weather conditions in past years. The results will help you decide how hot, cold, wet, or windy it might be!

Date:

Astronomy

Nov. 16, 2012 Rise Set
Actual Time 6:53 AM CST 5:38 PM CST
Civil Twilight 6:28 AM CST 6:03 PM CST
Nautical Twilight 6:00 AM CST 6:31 PM CST
Astronomical Twilight 5:32 AM CST 6:59 PM CST
Moon 9:44 AM CST (11/16) 8:43 PM CST (11/16)
Length of Visible Light 11h 35m
Length of Day
10h 45m
Waxing Crescent, 12% of the Moon is Illuminated
Nov 16
Waxing Crescent
Nov 20
First Quarter
Nov 28
Full
Dec 6
Last Quarter
Dec 13
New

Hourly Weather History & Observations

Time (CST) Temp. Dew Point Humidity Pressure Visibility Wind Dir Wind Speed Gust Speed Precip Events Conditions
12:56 AM 64.9 °F 54.0 °F 68% 30.22 in 10.0 mi NE 9.2 mph - N/A   Overcast
1:05 AM 64.4 °F 53.6 °F 68% 30.23 in 10.0 mi NE 9.2 mph - N/A   Overcast
1:56 AM 64.9 °F 51.1 °F 61% 30.22 in 10.0 mi NNE 9.2 mph - N/A   Overcast
2:56 AM 64.9 °F 51.1 °F 61% 30.22 in 10.0 mi NE 9.2 mph - N/A   Overcast
3:56 AM 64.0 °F 50.0 °F 60% 30.21 in 10.0 mi NNE 8.1 mph - N/A   Overcast
4:56 AM 63.0 °F 48.9 °F 60% 30.21 in 10.0 mi NNE 10.4 mph - N/A   Overcast
5:56 AM 63.0 °F 48.0 °F 58% 30.22 in 10.0 mi NNE 10.4 mph - N/A   Overcast
6:56 AM 63.0 °F 46.9 °F 56% 30.24 in 10.0 mi NNE 9.2 mph - N/A   Mostly Cloudy
7:56 AM 63.0 °F 46.0 °F 54% 30.25 in 10.0 mi NNE 10.4 mph - N/A   Mostly Cloudy
8:56 AM 64.0 °F 46.0 °F 52% 30.28 in 10.0 mi NNE 9.2 mph - N/A   Mostly Cloudy
9:56 AM 66.0 °F 46.9 °F 50% 30.30 in 10.0 mi NE 10.4 mph - N/A   Mostly Cloudy
10:56 AM 68.0 °F 41.0 °F 37% 30.30 in 10.0 mi NE 18.4 mph 23.0 mph N/A   Mostly Cloudy
11:56 AM 69.1 °F 39.0 °F 33% 30.29 in 10.0 mi NE 17.3 mph 23.0 mph N/A   Mostly Cloudy
12:56 PM 69.1 °F 39.9 °F 35% 30.27 in 10.0 mi NE 16.1 mph - N/A   Overcast
1:56 PM 70.0 °F 39.9 °F 33% 30.25 in 10.0 mi NE 16.1 mph - N/A   Mostly Cloudy
2:56 PM 69.1 °F 39.0 °F 33% 30.24 in 10.0 mi ENE 10.4 mph - N/A   Mostly Cloudy
3:56 PM 68.0 °F 39.0 °F 35% 30.25 in 10.0 mi ENE 8.1 mph - N/A   Mostly Cloudy
4:56 PM 66.9 °F 39.9 °F 37% 30.26 in 10.0 mi East 6.9 mph - N/A   Mostly Cloudy
5:56 PM 64.9 °F 39.9 °F 40% 30.26 in 10.0 mi East 6.9 mph - N/A   Mostly Cloudy
6:56 PM 60.1 °F 41.0 °F 49% 30.28 in 10.0 mi ESE 4.6 mph - N/A   Mostly Cloudy
7:56 PM 57.9 °F 42.1 °F 56% 30.28 in 10.0 mi East 3.5 mph - N/A   Scattered Clouds
8:56 PM 59.0 °F 45.0 °F 60% 30.30 in 10.0 mi Calm Calm - N/A   Overcast
9:56 PM 55.0 °F 43.0 °F 64% 30.31 in 10.0 mi North 3.5 mph - N/A   Clear
10:56 PM 54.0 °F 43.0 °F 66% 30.30 in 10.0 mi NNW 3.5 mph - N/A   Clear
11:56 PM 52.0 °F 43.0 °F 71% 30.29 in 10.0 mi NNW 4.6 mph - N/A   Clear